Faribault, MN

11:39 AM CDT on July 23, 2016 (GMT -0500)
Faribault Municipal

Weather History for KFBL - October, 2011

Change the Weather History Date:

Saturday, October 1, 2011

  Actual Average Record
Temperature  
Mean Temperature 46 °F -  
Max Temperature 64 °F 68 °F 132 °F (1998)
Min Temperature 28 °F 44 °F 28 °F (1974)
Degree Days  
Heating Degree Days 19    
Moisture  
Dew Point 30 °F    
Average Humidity 58    
Maximum Humidity 93    
Minimum Humidity 22    
Precipitation  
Precipitation 0.00 in - - ()
Sea Level Pressure  
Sea Level Pressure 30.30 in    
Wind  
Wind Speed 4 mph (SE)    
Max Wind Speed 10 mph    
Max Gust Speed -    
Visibility 10 miles    
Events      
Averages and records for this station are not official NWS values.
T = Trace of Precipitation, MM = Missing Value Source: NWS Daily Summary

Daily Weather History Graph

Daily Weather History Graph

Search for Another Location

Airport or City:

Trip Planner

Search our weather history database for the weather conditions in past years. The results will help you decide how hot, cold, wet, or windy it might be!

Date:

Astronomy

Oct. 01, 2011 Rise Set
Actual Time 7:10 AM CDT 6:54 PM CDT
Civil Twilight 6:41 AM CDT 7:23 PM CDT
Nautical Twilight 6:08 AM CDT 7:56 PM CDT
Astronomical Twilight 5:33 AM CDT 8:30 PM CDT
Moon 12:30 PM CDT (10/1) 9:39 PM CDT (10/1)
Length of Visible Light 12h 41m
Length of Day
11h 43m
Waxing Crescent, 24% of the Moon is Illuminated
Oct 1
Waxing Crescent
Oct 3
First Quarter
Oct 11
Full
Oct 19
Last Quarter
Oct 26
New

Hourly Weather History & Observations

Time (CDT) Temp. Windchill Dew Point Humidity Pressure Visibility Wind Dir Wind Speed Gust Speed Precip Events Conditions
12:14 AM 39.2 °F 37.0 °F 33.8 °F 81% 30.29 in 10.0 mi ENE 3.5 mph - N/A   Clear
12:34 AM 41.0 °F 39.0 °F 33.8 °F 76% 30.29 in 10.0 mi ENE 3.5 mph - N/A   Clear
12:54 AM 39.2 °F 37.0 °F 33.8 °F 81% 30.29 in 10.0 mi ENE 3.5 mph - N/A   Clear
1:14 AM 39.2 °F 37.0 °F 32.0 °F 75% 30.29 in 10.0 mi ENE 3.5 mph - N/A   Clear
1:34 AM 37.4 °F - 32.0 °F 81% 30.30 in 10.0 mi Calm Calm - N/A   Clear
1:54 AM 37.4 °F 34.9 °F 30.2 °F 75% 30.30 in 10.0 mi ENE 3.5 mph - N/A   Clear
2:14 AM 37.4 °F - 32.0 °F 81% 30.30 in 10.0 mi Calm Calm - N/A   Clear
2:33 AM 37.4 °F 34.9 °F 32.0 °F 81% 30.31 in 10.0 mi ENE 3.5 mph - N/A   Clear
2:54 AM 35.6 °F - 30.2 °F 81% 30.31 in 10.0 mi Calm Calm - N/A   Clear
3:14 AM 35.6 °F 32.8 °F 30.2 °F 81% 30.31 in 10.0 mi ENE 3.5 mph - N/A   Clear
3:34 AM 33.8 °F - 28.4 °F 81% 30.31 in 10.0 mi Calm Calm - N/A   Clear
3:54 AM 32.0 °F 27.5 °F 28.4 °F 87% 30.31 in 10.0 mi ENE 4.6 mph - N/A   Clear
4:14 AM 33.8 °F 30.8 °F 30.2 °F 87% 30.31 in 10.0 mi ENE 3.5 mph - N/A   Clear
4:34 AM 32.0 °F 28.7 °F 28.4 °F 87% 30.31 in 10.0 mi ENE 3.5 mph - N/A   Clear
4:54 AM 33.8 °F - 30.2 °F 87% 30.32 in 10.0 mi Calm Calm - N/A   Clear
5:14 AM 30.2 °F - 28.4 °F 93% 30.32 in 10.0 mi Calm Calm - N/A   Clear
5:34 AM 28.4 °F - 26.6 °F 93% 30.33 in 10.0 mi Calm Calm - N/A   Clear
5:54 AM 28.4 °F - 26.6 °F 93% 30.32 in 10.0 mi Calm Calm - N/A   Clear
6:14 AM 28.4 °F - 26.6 °F 93% 30.33 in 10.0 mi Calm Calm - N/A   Clear
6:34 AM 28.4 °F - 26.6 °F 93% 30.33 in 10.0 mi Calm Calm - N/A   Clear
7:14 AM 28.4 °F - 26.6 °F 93% 30.34 in 10.0 mi Calm Calm - N/A   Clear
7:34 AM 28.4 °F - 26.6 °F 93% 30.35 in 10.0 mi Calm Calm - N/A   Clear
7:54 AM 30.2 °F - 28.4 °F 93% 30.35 in 10.0 mi Calm Calm - N/A   Clear
8:14 AM 33.8 °F - 32.0 °F 93% 30.35 in 10.0 mi Calm Calm - N/A   Clear
8:34 AM 39.2 °F 35.0 °F 33.8 °F 81% 30.35 in 10.0 mi SE 5.8 mph - N/A   Clear
9:14 AM 44.6 °F 41.4 °F 33.8 °F 66% 30.36 in 10.0 mi SE 5.8 mph - N/A   Clear
9:34 AM 46.4 °F 42.4 °F 33.8 °F 62% 30.37 in 10.0 mi SSE 8.1 mph - N/A   Clear
9:54 AM 46.4 °F 42.4 °F 33.8 °F 62% 30.37 in 10.0 mi SSE 8.1 mph - N/A   Clear
10:14 AM 48.2 °F - 33.8 °F 58% 30.38 in 10.0 mi SSE 8.1 mph - N/A   Clear
10:34 AM 50.0 °F - 32.0 °F 50% 30.37 in 10.0 mi South 6.9 mph - N/A   Clear
11:14 AM 53.6 °F - 32.0 °F 44% 30.37 in 10.0 mi South 6.9 mph - N/A   Clear
11:34 AM 53.6 °F - 32.0 °F 44% 30.37 in 10.0 mi SSE 4.6 mph - N/A   Clear
11:54 AM 55.4 °F - 30.2 °F 38% 30.36 in 10.0 mi SE 8.1 mph - N/A   Clear
12:14 PM 55.4 °F - 30.2 °F 38% 30.35 in 10.0 mi SSE 5.8 mph - N/A   Clear
12:34 PM 55.4 °F - 30.2 °F 38% 30.34 in 10.0 mi ESE 9.2 mph - N/A   Clear
12:53 PM 57.2 °F - 28.4 °F 33% 30.34 in 10.0 mi SSE 6.9 mph - N/A   Clear
1:14 PM 59.0 °F - 28.4 °F 31% 30.32 in 10.0 mi SE 6.9 mph - N/A   Clear
1:34 PM 59.0 °F - 28.4 °F 31% 30.31 in 10.0 mi South 6.9 mph - N/A   Clear
1:54 PM 60.8 °F - 28.4 °F 29% 30.30 in 10.0 mi SE 6.9 mph - N/A   Clear
2:15 PM 60.8 °F - 28.4 °F 29% 30.29 in 10.0 mi SSE 9.2 mph - N/A   Clear
2:34 PM 62.6 °F - 26.6 °F 26% 30.28 in 10.0 mi SSE 4.6 mph - N/A   Clear
3:14 PM 62.6 °F - 26.6 °F 26% 30.27 in 10.0 mi SE 10.4 mph - N/A   Clear
3:33 PM 62.6 °F - 26.6 °F 26% 30.27 in 10.0 mi SSE 9.2 mph - N/A   Clear
3:54 PM 64.4 °F - 26.6 °F 24% 30.26 in 10.0 mi South 5.8 mph - N/A   Clear
4:14 PM 62.6 °F - 26.6 °F 26% 30.26 in 10.0 mi SE 4.6 mph - N/A   Clear
4:33 PM 64.4 °F - 24.8 °F 22% 30.25 in 10.0 mi SSE 9.2 mph - N/A   Clear
4:54 PM 64.4 °F - 26.6 °F 24% 30.25 in 10.0 mi SSE 6.9 mph - N/A   Clear
5:14 PM 64.4 °F - 26.6 °F 24% 30.25 in 10.0 mi SSE 6.9 mph - N/A   Clear
5:34 PM 62.6 °F - 26.6 °F 26% 30.25 in 10.0 mi SSE 4.6 mph - N/A   Clear
5:54 PM 62.6 °F - 26.6 °F 26% 30.24 in 10.0 mi SSE 5.8 mph - N/A   Clear
6:14 PM 62.6 °F - 26.6 °F 26% 30.24 in 10.0 mi SSE 4.6 mph - N/A   Clear
6:34 PM 59.0 °F - 28.4 °F 31% 30.24 in 10.0 mi SSE 3.5 mph - N/A   Clear
6:54 PM 55.4 °F - 30.2 °F 38% 30.24 in 10.0 mi SE 3.5 mph - N/A   Clear
7:14 PM 51.8 °F - 30.2 °F 44% 30.23 in 10.0 mi SE 4.6 mph - N/A   Clear
7:34 PM 51.8 °F - 30.2 °F 44% 30.23 in 10.0 mi SE 3.5 mph - N/A   Clear
7:54 PM 48.2 °F - 30.2 °F 50% 30.23 in 10.0 mi Calm Calm - N/A   Clear
8:14 PM 46.4 °F - 30.2 °F 53% 30.23 in 10.0 mi Calm Calm - N/A   Clear
8:34 PM 44.6 °F 43.1 °F 30.2 °F 57% 30.22 in 10.0 mi SSE 3.5 mph - N/A   Clear
8:54 PM 42.8 °F - 32.0 °F 66% 30.22 in 10.0 mi Calm Calm - N/A   Clear
9:14 PM 44.6 °F - 30.2 °F 57% 30.22 in 10.0 mi Calm Calm - N/A   Clear
9:34 PM 44.6 °F 43.1 °F 30.2 °F 57% 30.22 in 10.0 mi SSE 3.5 mph - N/A   Clear
9:54 PM 48.2 °F - 30.2 °F 50% 30.22 in 10.0 mi SSE 4.6 mph - N/A   Clear
10:14 PM 48.2 °F - 30.2 °F 50% 30.22 in 10.0 mi SSE 3.5 mph - N/A   Clear
10:34 PM 48.2 °F - 30.2 °F 50% 30.22 in 10.0 mi SSE 3.5 mph - N/A   Clear
10:54 PM 46.4 °F 45.2 °F 30.2 °F 53% 30.22 in 10.0 mi South 3.5 mph - N/A   Clear
11:14 PM 46.4 °F 45.2 °F 30.2 °F 53% 30.23 in 10.0 mi South 3.5 mph - N/A   Clear
11:34 PM 46.4 °F 44.3 °F 30.2 °F 53% 30.23 in 10.0 mi South 4.6 mph - N/A   Clear
11:54 PM 46.4 °F 45.2 °F 30.2 °F 53% 30.23 in 10.0 mi SSE 3.5 mph - N/A   Clear